Theta_e
326 328 333 334 337 338 339 340 340 341 340 339 338 338 337 337 337 337 336 335 335 335 336 336 336 337 337 336 337 337 337 338 338 337 336 336 336 336 337 337 337 337 337 338 338 338 339 339 339 339 339 340 339 338 338 337 336 331 326 324 324 323 323 327 333 335 336 337 336 334 334 336 338 338 338 339 338 336 332 330 330 331 332 334 336
323 328 332 333 337 339 339 340 340 340 340 340 339 338 336 335 333 333 333 333 333 333 333 335 336 337 337 337 337 337 337 337 338 338 337 337 337 337 337 337 337 338 338 339 338 338 338 339 340 339 339 338 338 337 336 336 335 332 327 325 324 324 323 323 327 333 335 335 334 334 335 336 338 339 338 337 336 334 331 331 329 327 328 328 330
322 328 331 333 337 338 339 340 340 340 340 341 340 339 337 335 333 331 331 331 331 331 331 333 336 337 338 338 338 337 337 338 338 338 338 338 338 337 336 336 336 338 339 339 339 338 339 339 339 338 337 337 336 335 335 335 334 332 329 327 326 325 325 324 323 327 332 335 334 333 335 338 339 339 338 334 333 332 332 334 332 329 328 327 324
322 326 329 332 335 337 339 339 340 339 340 340 340 340 337 336 335 332 331 332 332 331 332 335 338 339 339 339 339 338 338 338 338 338 338 338 337 336 334 335 335 337 338 339 339 339 339 338 337 337 337 336 335 335 334 334 334 333 332 330 328 327 327 326 325 324 326 331 335 334 334 338 339 339 339 336 333 333 334 334 334 332 329 328 327
321 325 328 332 333 334 336 337 338 338 339 339 339 339 338 338 336 334 332 332 334 335 336 338 339 339 339 339 339 339 338 338 338 338 338 338 337 336 334 335 336 337 338 338 338 338 338 337 337 337 336 335 335 333 333 333 333 333 332 332 330 329 328 327 327 326 325 326 330 334 334 335 339 340 339 336 334 334 335 335 335 333 330 329 329
320 323 329 332 332 333 335 335 337 338 338 338 338 338 338 339 337 336 334 333 336 338 338 339 339 339 339 339 339 339 338 339 338 337 337 337 336 336 335 336 338 337 338 338 337 337 336 337 336 335 335 335 334 332 331 332 332 331 332 331 330 330 329 329 328 328 327 325 324 329 334 335 337 340 339 337 336 335 336 337 336 334 332 330 328
321 323 329 331 331 333 335 336 336 337 336 336 337 337 337 338 337 337 337 337 338 339 338 339 340 339 339 339 339 339 338 338 337 337 337 336 335 335 335 336 337 337 337 336 335 335 335 335 335 334 334 334 333 331 330 331 331 331 331 330 330 329 328 328 327 328 328 328 325 324 329 334 336 337 339 338 337 336 336 337 336 333 332 330 327
323 324 329 330 331 333 336 336 336 336 336 336 337 337 337 337 337 337 338 338 339 339 339 339 339 339 339 338 338 338 337 337 336 335 335 334 334 334 335 335 335 335 335 335 334 334 333 334 334 334 333 332 331 331 330 330 329 329 328 328 327 326 324 324 324 325 326 327 327 325 325 330 334 335 338 338 337 336 336 334 333 332 331 330 328
325 326 330 332 332 333 336 336 335 336 337 337 337 337 337 338 337 337 338 338 338 338 338 338 338 339 338 338 337 337 336 335 334 334 333 332 332 332 333 333 333 333 333 333 333 332 332 332 332 333 332 331 330 329 328 326 325 324 323 321 320 318 317 316 317 318 320 322 323 325 324 325 330 333 336 337 337 336 334 333 333 333 332 330 329
326 327 331 333 332 334 336 335 335 335 336 336 336 337 337 338 338 338 338 337 338 337 338 338 338 338 337 336 335 335 335 333 333 332 331 330 330 330 331 332 332 331 331 331 331 330 330 329 330 330 329 327 325 323 322 320 318 316 313 311 309 308 307 306 307 308 311 315 318 321 324 325 327 331 335 336 337 335 334 334 333 334 333 332 332
327 330 333 334 332 335 335 335 335 334 336 335 335 336 337 337 337 338 338 337 337 337 337 337 337 337 336 335 333 332 333 331 330 329 329 328 329 329 330 331 330 330 330 330 329 328 326 326 325 323 321 318 315 313 311 310 308 306 304 302 302 301 301 300 301 302 305 309 314 318 323 326 327 330 334 334 335 334 334 335 335 335 335 335 335
329 332 334 335 333 334 335 335 336 335 336 335 335 335 336 336 336 336 337 337 336 337 336 336 336 335 333 332 332 330 330 328 327 327 327 327 327 327 328 329 329 329 329 328 326 324 322 319 317 313 310 307 306 305 303 302 301 300 299 299 299 299 299 299 299 301 304 308 313 318 322 325 327 330 332 332 332 332 333 335 335 335 335 335 335
330 332 333 334 333 335 335 335 335 334 335 336 335 334 335 335 335 334 334 334 334 335 334 335 333 332 331 329 330 329 328 327 326 326 326 326 325 325 326 327 327 327 326 325 322 319 316 313 310 306 304 302 301 301 300 299 299 299 299 299 299 300 299 299 300 300 304 309 314 319 322 324 326 328 330 330 330 331 331 332 333 333 333 334 334
330 331 332 333 333 334 334 334 333 332 332 334 334 333 334 333 334 332 332 332 332 333 333 332 330 329 329 328 328 328 327 326 325 325 324 323 323 323 322 323 323 322 321 319 315 312 311 309 306 303 301 300 299 299 299 299 299 299 299 300 300 300 300 300 300 300 303 308 314 319 322 323 325 327 328 328 329 329 329 330 330 331 332 331 331
330 331 331 332 332 332 332 332 331 331 329 329 332 332 332 332 332 332 331 331 331 331 331 329 328 328 327 327 327 326 326 325 324 324 322 319 317 316 314 314 315 315 313 311 309 307 307 305 302 300 299 299 299 299 299 299 299 299 299 299 299 299 299 300 301 301 302 307 313 318 321 322 324 326 327 327 327 327 327 327 328 329 330 329 329
330 330 331 331 331 331 331 331 329 327 326 327 330 331 330 330 331 330 331 330 330 330 329 328 328 328 327 327 326 326 325 324 324 322 317 313 311 309 307 308 308 308 307 306 305 304 303 301 299 299 299 299 299 299 299 299 299 299 299 298 298 298 298 298 300 301 302 306 311 316 320 322 323 325 325 326 326 326 326 326 326 326 328 328 328
330 330 331 330 331 331 331 330 327 325 325 326 328 329 330 330 330 330 331 330 329 329 328 328 327 327 326 326 325 325 324 323 322 317 312 308 308 307 306 307 306 305 304 303 302 301 300 299 299 299 299 299 299 299 299 299 299 299 298 298 298 298 298 298 298 299 301 304 309 314 318 320 321 323 324 324 324 323 324 324 325 324 325 325 326
330 330 330 330 330 330 329 328 325 324 325 325 327 329 329 330 330 329 330 330 328 328 328 327 326 326 325 325 324 323 323 321 317 312 309 308 308 307 306 306 307 306 304 303 301 299 299 299 299 299 299 299 298 298 298 298 298 298 298 298 298 298 298 298 297 298 298 301 305 311 316 318 320 322 322 322 322 321 321 321 322 323 322 322 322
329 330 329 330 329 328 327 326 324 324 324 325 326 328 329 329 329 329 328 329 328 327 326 326 326 325 325 324 323 322 320 318 313 310 310 309 309 307 307 308 309 308 305 302 300 298 298 298 298 298 298 298 298 298 298 298 297 298 298 298 298 298 297 297 297 297 297 298 301 307 313 316 318 320 321 320 320 320 319 319 320 320 319 319 320
328 329 328 328 328 327 325 324 323 323 323 324 325 326 328 328 328 328 327 328 327 326 326 325 325 324 324 323 322 321 317 314 312 311 311 309 307 306 309 310 309 307 303 300 299 298 298 298 298 297 297 297 297 297 297 297 297 297 297 297 297 297 297 297 297 297 296 297 298 302 308 313 316 319 319 318 318 317 317 318 318 318 318 318 317
328 328 328 327 326 326 325 324 323 323 323 323 325 325 325 327 328 327 327 327 327 326 326 325 324 324 323 321 320 318 314 312 311 310 309 307 304 304 308 309 306 303 300 299 298 298 298 298 298 297 298 297 297 298 297 297 297 297 296 297 296 296 297 296 296 296 296 296 296 298 302 307 312 316 317 316 315 314 315 314 315 316 316 315 315
327 327 327 327 327 326 326 325 323 321 321 322 324 325 324 326 327 326 326 326 326 326 325 324 324 323 322 319 317 315 311 309 308 307 306 304 303 303 306 306 303 300 299 298 298 298 298 298 298 298 298 298 298 298 297 297 297 297 296 296 296 296 296 296 296 296 296 296 296 297 299 303 309 314 315 315 314 313 315 315 316 316 316 316 316
325 327 327 327 327 326 326 325 323 320 319 320 322 324 324 325 327 326 325 325 325 325 325 324 323 322 320 317 314 311 308 306 305 304 303 302 302 303 305 306 303 300 299 298 297 297 298 298 298 298 298 298 298 298 298 297 297 296 296 296 296 296 296 296 296 296 296 295 295 295 297 300 306 313 316 316 315 315 317 318 318 318 318 318 318
325 325 326 327 327 326 326 325 323 320 319 319 319 322 323 324 326 326 325 325 325 325 325 323 322 321 318 314 311 308 306 304 303 303 302 301 302 303 305 305 303 300 299 297 297 297 298 298 299 299 299 298 298 298 298 297 297 296 296 296 296 296 296 296 295 295 295 295 295 295 295 297 303 312 317 316 316 316 317 317 317 318 318 318 318
322 323 324 325 326 326 326 326 324 322 321 320 319 320 322 323 324 325 325 325 325 325 324 322 321 319 315 311 309 306 304 303 302 302 301 301 301 302 303 302 301 299 298 298 298 298 298 298 299 299 298 298 298 298 297 297 296 296 296 296 295 295 295 295 295 295 295 295 295 294 295 296 299 309 315 316 316 316 317 317 317 317 318 317 317
320 321 323 323 325 326 326 326 325 324 323 322 320 320 321 322 323 324 325 325 325 324 322 320 319 317 313 309 307 305 303 302 301 301 300 300 299 300 300 299 298 298 297 297 297 297 298 298 299 299 298 298 298 297 297 296 296 296 295 295 295 295 295 295 295 294 295 294 294 294 294 295 297 304 313 315 315 316 316 316 316 316 317 316 316
319 319 319 321 323 324 325 325 325 325 323 322 321 321 321 321 321 323 324 324 323 323 321 318 316 314 310 307 305 304 302 301 300 300 299 298 298 298 299 298 298 297 297 297 297 298 298 299 299 298 298 297 297 296 296 295 295 295 295 295 294 294 294 294 294 294 294 294 294 294 294 295 296 301 310 314 315 315 315 315 315 315 315 315 315
317 317 318 319 321 322 324 325 325 325 324 323 322 321 321 320 320 321 323 323 322 321 318 315 313 311 308 306 304 302 300 299 299 299 298 297 297 298 298 297 297 297 297 297 297 298 298 298 298 298 297 297 296 296 295 295 294 294 294 294 294 294 294 294 294 294 294 294 294 294 294 294 295 300 307 311 313 313 314 314 314 314 314 314 314
316 316 317 318 318 320 322 323 324 324 324 323 322 322 321 320 320 321 321 321 320 318 316 313 310 308 307 305 303 302 300 298 298 298 297 297 297 297 297 297 296 296 296 297 297 298 298 298 298 297 297 296 296 295 295 294 294 294 294 294 294 293 293 293 293 293 293 293 293 293 294 294 295 298 303 307 310 312 313 313 313 313 313 313 313
315 315 316 316 317 318 320 321 323 323 323 323 322 321 321 320 320 320 320 320 319 317 314 311 308 306 305 304 302 301 299 298 298 297 297 297 296 296 296 296 296 296 296 297 297 297 298 298 297 297 296 296 295 294 294 294 294 293 293 293 293 293 293 293 293 293 293 293 293 293 294 294 295 297 300 304 307 310 311 311 312 312 312 312 313
313 313 314 315 316 317 318 319 321 322 322 322 322 321 321 319 319 319 319 318 317 316 313 310 307 305 303 302 301 300 299 298 298 298 297 297 296 296 296 296 296 296 296 296 297 297 297 297 297 296 296 295 294 294 293 293 293 293 293 293 293 293 293 293 293 293 293 293 293 293 294 295 295 297 299 302 305 307 308 309 309 310 311 312 312
312 313 313 313 314 315 316 317 319 320 321 321 321 321 320 319 318 317 317 317 316 315 313 310 307 304 303 302 301 299 298 298 298 298 298 297 297 296 296 296 296 296 296 296 297 297 297 296 296 295 295 294 294 294 293 293 293 293 293 293 293 293 293 293 293 293 292 293 293 294 294 295 296 296 296 299 302 303 304 305 307 308 309 310 311
312 312 312 311 312 314 315 315 317 318 320 320 320 320 319 319 318 317 316 316 316 315 312 309 306 304 302 301 300 299 298 297 298 297 297 297 297 296 296 296 295 295 296 296 296 296 296 295 295 294 294 293 293 293 293 292 293 293 293 293 293 293 293 292 293 292 292 293 294 294 295 296 296 296 294 295 297 299 299 302 304 305 306 308 309
311 311 310 311 312 312 312 314 315 316 318 318 319 319 319 318 317 317 316 316 315 314 312 309 307 304 302 301 300 298 297 297 297 297 297 297 296 296 296 296 295 295 295 296 296 296 295 294 294 294 293 293 293 293 293 292 292 293 293 293 293 293 293 292 292 292 293 293 294 295 295 296 295 294 293 293 294 295 295 297 299 301 302 304 305
309 309 310 311 311 310 311 312 313 314 315 317 317 318 318 317 317 317 316 315 315 314 312 310 307 305 303 301 299 298 297 297 297 297 297 296 296 296 296 295 295 295 295 295 295 295 294 294 294 293 293 292 292 292 292 292 293 293 293 293 293 293 292 292 292 292 293 293 294 295 295 296 295 294 293 293 293 293 293 293 294 295 297 298 300
309 309 310 310 309 309 309 310 311 312 314 315 316 316 316 316 316 316 315 315 314 314 312 310 308 305 303 301 299 298 297 296 296 297 297 296 296 296 296 295 295 295 295 295 295 295 294 293 293 293 293 292 292 292 291 292 292 293 293 293 293 292 292 291 291 292 292 292 292 293 294 294 294 293 293 292 292 291 291 291 291 291 292 293 294
308 309 309 309 309 309 308 308 309 310 312 313 314 315 315 314 315 314 314 314 313 313 312 310 308 306 304 302 300 298 297 296 296 296 296 296 296 296 295 295 294 294 295 294 294 294 293 293 292 292 292 292 292 292 291 291 292 292 292 293 292 292 291 291 291 292 291 291 291 291 291 292 292 292 292 291 290 290 290 290 290 290 290 290 290
308 308 308 309 309 309 308 308 308 308 309 311 312 313 313 313 312 312 312 312 312 312 311 310 308 306 304 302 300 298 297 296 296 296 296 296 295 295 295 294 294 294 294 294 294 293 293 292 292 291 291 292 292 292 292 292 292 292 292 292 292 291 291 291 291 292 291 290 290 290 290 291 291 291 290 290 289 289 289 289 289 289 289 289 289
308 308 307 308 308 308 308 307 307 307 307 308 310 310 310 310 310 309 309 309 309 309 309 308 308 306 304 302 300 298 297 296 296 296 296 295 295 295 295 294 294 294 293 293 293 292 292 291 291 291 291 291 292 292 292 292 292 292 292 291 291 291 291 291 291 292 291 291 290 290 290 290 290 290 289 289 289 288 288 288 288 288 288 288 289
308 307 307 307 307 307 307 306 306 306 306 306 307 308 308 308 307 307 307 307 307 307 307 307 306 305 304 301 300 298 297 296 296 296 296 296 295 295 294 293 293 293 293 293 293 293 292 291 291 291 291 291 290 291 291 292 292 291 290 290 290 290 290 291 291 291 291 291 290 290 289 289 289 289 289 288 288 288 288 288 288 288 288 288 288
307 307 306 306 306 306 306 305 305 305 304 305 305 306 307 306 305 305 306 305 304 304 305 305 305 304 303 301 299 298 297 296 296 296 296 296 296 295 294 293 293 293 293 293 293 293 292 292 291 290 291 291 290 290 290 292 292 290 290 290 289 289 289 289 290 290 290 290 289 289 289 289 289 288 288 288 288 288 288 288 288 287 288 288 288
308 307 307 306 306 305 305 305 305 304 304 304 304 305 306 305 305 305 304 303 303 303 303 304 304 303 302 300 298 297 296 296 296 296 297 297 296 296 295 294 293 293 293 293 293 292 292 291 290 290 290 290 291 291 290 292 292 291 290 290 289 289 289 288 289 289 288 288 288 288 288 288 288 288 288 288 288 288 288 287 288 287 287 288 288
307 307 307 306 305 305 305 305 304 304 304 304 303 304 304 305 305 304 303 302 302 302 302 302 302 301 299 298 298 297 296 296 296 297 297 297 297 296 296 295 293 293 292 292 292 291 291 291 290 290 290 290 291 291 291 292 292 292 292 293 292 291 290 289 288 289 288 288 288 288 288 288 288 288 287 287 287 287 287 287 287 287 287 287 288
307 306 306 305 305 305 305 304 304 304 304 303 303 303 303 303 303 302 302 301 301 300 300 300 299 299 298 297 297 296 296 296 296 296 297 297 297 297 296 295 294 293 292 292 292 291 291 291 290 290 291 291 291 290 291 292 293 293 293 294 292 292 295 293 289 289 288 288 288 287 288 288 288 288 287 287 287 287 287 287 287 287 287 287 287
306 306 306 305 305 305 305 305 304 304 303 303 302 302 302 302 301 300 300 299 299 298 297 297 297 297 297 296 296 296 296 296 296 296 296 297 297 296 296 296 295 293 292 292 292 291 291 291 291 291 291 292 292 291 291 291 292 294 294 294 293 295 298 294 290 290 288 288 288 287 288 288 288 288 288 287 287 287 287 286 287 287 287 287 287
305 305 305 304 304 304 304 304 304 303 303 302 302 301 301 301 300 299 298 297 297 297 297 297 296 296 296 296 296 295 295 295 295 296 296 296 296 296 296 296 295 293 292 291 291 291 291 291 291 291 291 293 293 292 291 291 292 292 293 295 296 297 297 291 291 293 289 287 288 287 287 287 288 288 288 287 287 287 287 286 286 287 287 287 287
304 304 303 303 303 303 303 303 303 303 303 302 301 301 301 300 300 299 298 298 297 297 298 297 297 296 296 296 295 295 295 295 295 295 296 296 296 296 296 296 295 294 293 291 291 291 292 291 291 291 291 292 293 293 292 291 291 291 291 293 293 294 294 293 293 295 292 290 287 287 287 287 287 288 287 287 287 286 287 286 286 287 287 286 286
303 304 303 303 303 302 302 302 303 302 302 302 301 301 301 300 300 299 299 299 299 298 298 297 297 296 296 295 295 295 295 295 295 295 295 295 295 295 295 295 295 295 294 292 291 291 291 291 291 291 291 291 292 293 293 293 292 291 291 291 291 292 293 293 293 294 296 295 290 287 287 286 287 287 287 287 286 286 286 286 286 286 286 286 286
303 303 303 303 303 302 302 301 302 302 301 301 301 300 300 300 299 299 299 299 299 299 298 297 297 296 296 295 295 294 294 294 295 295 295 295 295 295 295 295 295 295 294 293 291 291 291 291 291 290 290 291 291 292 293 294 294 293 292 290 290 290 290 291 291 291 293 295 293 290 288 287 287 287 287 287 286 286 286 286 286 286 286 286 286
302 302 302 302 302 302 302 301 301 301 301 300 300 300 300 299 299 299 299 299 298 298 298 297 297 296 296 295 294 294 294 294 294 294 294 294 295 295 295 295 295 295 295 294 292 291 291 291 291 291 291 291 291 291 292 293 294 294 294 293 291 289 289 289 288 288 289 291 292 291 289 288 288 288 287 286 285 285 285 285 285 285 285 285 285
300 300 300 301 301 301 301 301 300 300 300 300 300 300 299 299 299 299 298 298 298 298 297 297 297 296 296 295 295 294 294 294 294 294 294 294 294 294 295 295 295 295 295 295 293 292 291 291 291 290 290 291 291 291 291 292 293 293 293 294 293 293 292 291 290 289 289 289 291 291 288 287 288 287 287 286 285 285 285 285 285 285 285 285 284
Wind_Speed
25 26 27 25 23 21 19 18 17 17 17 16 15 14 14 12 11 10 9 9 9 9 9 8 8 8 7 7 7 7 7 7 7 7 7 7 7 7 6 7 7 6 7 7 7 6 6 6 7 8 9 10 10 11 10 8 8 8 10 11 11 11 11 11 11 12 12 12 12 12 11 12 11 11 11 12 12 12 12 12 11 11 11 10 9
30 28 28 26 24 22 20 19 18 17 17 16 15 14 14 13 12 11 10 10 9 8 8 8 8 8 8 8 7 7 7 7 7 7 7 6 6 6 5 6 6 6 6 6 6 6 6 6 7 8 8 9 9 9 8 7 6 8 10 10 10 10 10 10 10 9 10 9 9 9 10 11 12 13 12 11 12 11 11 12 12 12 12 9 8
30 30 30 27 25 22 20 20 18 18 17 16 16 15 14 13 12 12 11 10 9 9 8 8 9 9 9 8 8 8 9 8 9 8 7 7 6 6 6 6 6 7 6 6 6 6 7 7 7 6 6 6 6 6 6 4 4 5 7 8 8 8 8 9 8 8 7 7 8 8 8 10 11 12 11 10 11 11 11 11 12 12 11 9 8
31 31 30 28 26 23 21 20 19 18 18 17 16 15 16 14 13 13 12 11 10 10 9 9 9 9 9 9 10 9 9 9 9 9 8 7 7 6 6 7 7 7 6 7 7 7 8 6 5 4 3 3 3 3 3 2 2 3 4 5 5 6 6 6 7 7 6 5 5 6 7 9 10 10 9 9 10 10 10 10 10 10 10 10 9
33 31 30 29 26 24 22 21 19 18 18 17 17 16 16 15 14 14 13 13 12 11 10 10 10 10 10 10 11 10 10 10 9 9 8 7 7 7 6 7 7 7 7 8 8 7 6 5 4 2 1 1 1 1 1 2 2 2 2 2 3 4 4 4 4 4 4 4 3 4 6 7 9 10 9 8 8 8 9 9 9 9 9 10 10
33 32 31 29 27 25 23 21 20 18 18 18 17 16 15 15 14 14 15 15 13 12 11 11 11 11 11 11 11 10 10 10 9 9 8 7 7 7 7 7 8 8 9 8 8 6 5 4 4 3 1 1 0 2 3 4 4 4 4 4 4 4 4 4 4 3 3 3 2 2 4 5 7 10 8 7 7 6 7 8 7 8 8 8 9
33 32 31 30 28 26 23 22 20 19 19 18 18 17 16 15 15 14 14 14 13 13 13 12 12 12 12 11 10 10 10 9 9 8 8 7 7 7 7 8 8 8 8 7 5 5 6 5 4 3 2 2 2 4 5 5 6 6 6 6 6 6 6 6 5 4 3 2 1 1 2 3 5 7 8 5 5 5 5 5 5 6 7 7 7
32 32 32 31 29 27 25 23 21 19 19 19 18 18 17 16 15 15 14 14 13 14 14 14 13 13 12 11 10 9 9 9 8 8 7 7 7 7 8 7 7 7 7 6 4 4 6 6 5 4 4 4 4 5 6 6 7 8 8 8 8 8 8 7 7 6 5 3 2 0 1 3 3 4 6 4 3 4 4 4 4 5 5 6 6
33 32 32 31 30 28 26 24 22 20 19 19 18 18 17 17 17 16 16 15 15 14 14 14 13 13 12 11 10 9 8 8 8 8 6 6 6 6 8 8 7 7 7 6 5 4 5 7 6 6 6 6 6 6 7 7 8 8 8 8 8 7 7 6 6 6 5 4 3 1 2 3 3 4 5 4 3 2 3 4 4 4 5 6 6
33 31 31 30 29 28 27 25 23 21 19 18 18 18 16 17 17 16 16 16 15 15 14 13 13 12 11 10 9 7 8 8 7 7 7 7 7 7 8 9 8 7 6 6 5 4 6 6 6 7 7 7 7 7 7 7 7 7 7 6 6 5 5 4 4 4 4 4 3 3 3 4 5 6 6 4 2 1 1 3 3 4 5 6 6
33 31 31 30 29 28 27 25 23 21 20 19 19 18 16 16 16 16 15 15 14 14 13 13 12 12 11 10 9 8 8 8 8 9 9 8 8 9 9 9 9 8 7 6 5 5 5 4 5 5 5 5 5 6 6 6 6 5 5 4 4 3 3 2 1 1 2 3 4 4 4 5 7 8 7 4 4 3 2 2 3 4 3 4 5
33 32 31 30 29 28 28 26 25 23 21 20 21 20 18 17 17 17 15 15 15 14 14 13 13 12 12 11 10 10 10 9 9 10 10 9 9 9 9 9 9 9 9 8 7 5 4 4 4 5 5 4 4 4 3 3 2 2 2 2 2 2 2 2 1 2 3 4 5 5 6 6 7 9 7 5 6 7 6 5 4 4 4 4 5
34 33 31 31 29 29 28 27 26 24 22 22 22 22 19 18 18 19 17 16 16 15 15 15 14 14 13 13 12 12 11 10 11 10 10 10 10 10 9 10 12 11 10 9 7 6 5 5 5 5 4 3 3 2 1 0 1 2 2 3 3 3 4 3 3 3 4 5 6 7 7 7 7 8 7 6 7 7 7 8 4 3 4 3 4
34 33 32 31 30 29 29 28 27 25 24 23 22 20 20 20 19 19 19 19 18 16 16 16 16 15 14 14 14 13 13 12 12 11 12 11 11 11 11 12 12 11 10 9 8 7 6 6 5 5 4 3 2 2 2 2 3 3 4 4 5 5 5 4 4 4 4 5 7 7 7 8 7 6 7 6 5 6 5 6 4 2 1 1 2
32 33 32 31 30 30 29 28 27 25 24 24 22 20 20 21 20 20 20 20 19 18 18 17 16 16 16 15 15 15 14 14 13 13 12 12 11 11 12 12 12 12 11 9 9 9 8 6 5 4 4 3 3 3 3 3 4 4 5 5 6 6 6 5 5 4 4 5 6 7 7 8 7 6 7 6 5 5 3 3 3 2 2 1 1
30 32 32 32 31 30 29 28 27 25 24 23 23 22 21 21 21 21 21 21 20 19 19 18 18 18 17 16 16 16 16 15 14 13 13 12 12 12 12 12 12 12 11 11 10 9 8 7 5 4 4 3 3 3 3 4 4 5 5 6 6 6 6 6 5 4 3 4 6 7 7 7 7 7 6 5 4 2 1 1 1 1 1 2 3
29 31 32 32 31 31 30 29 27 26 25 24 23 23 23 22 23 23 22 22 21 20 19 19 19 18 18 18 17 17 17 16 15 14 14 13 13 13 13 13 13 12 12 12 11 10 8 7 6 5 4 3 3 3 3 4 4 5 6 6 6 6 6 6 5 4 3 3 5 7 7 7 6 6 5 4 2 1 1 2 2 2 2 3 4
29 30 31 31 32 31 31 30 28 27 26 25 25 25 25 24 24 23 23 23 23 22 20 20 20 19 19 19 19 19 18 17 16 15 15 14 14 14 14 14 13 13 13 13 11 10 9 8 7 6 5 4 3 3 3 3 3 4 4 5 5 6 5 5 4 3 2 3 4 6 7 7 5 5 4 3 1 1 2 3 3 3 3 4 4
29 30 31 31 32 32 31 30 29 29 28 27 27 27 27 26 25 24 24 24 24 23 21 21 21 21 21 21 21 20 19 18 17 16 16 16 16 15 15 15 15 15 14 13 11 10 9 8 7 6 6 5 4 3 3 2 2 2 3 3 4 4 4 4 4 3 2 2 4 6 7 7 5 4 4 3 1 1 2 2 3 4 4 4 5
29 30 32 32 32 32 32 31 31 30 30 29 28 28 29 27 26 25 25 25 25 24 23 23 23 23 23 23 22 21 20 19 18 18 18 18 17 16 16 16 16 15 14 12 11 10 9 8 7 6 5 4 3 3 2 1 1 1 1 2 2 3 3 3 3 2 1 1 3 5 7 7 5 4 4 3 1 2 2 3 3 3 4 4 5
30 32 33 34 33 33 33 32 32 32 31 30 30 29 29 28 27 26 26 26 26 25 25 25 24 25 25 24 23 22 21 20 20 19 19 19 18 17 17 17 16 14 13 11 11 10 9 8 7 5 4 3 2 1 0 1 1 1 2 2 2 3 3 3 2 2 1 0 1 3 5 6 5 5 5 4 3 2 2 2 2 2 3 3 4
31 33 35 35 35 35 34 34 33 33 32 32 32 30 29 29 29 28 28 27 27 27 27 27 26 26 26 25 24 23 22 22 21 21 20 19 18 18 18 17 16 14 13 12 11 10 9 8 7 5 4 3 2 1 1 1 1 2 2 3 3 3 3 3 3 3 2 1 0 2 4 5 5 6 6 6 6 5 6 5 5 5 5 5 5
33 36 38 38 37 37 36 36 35 35 34 33 33 32 31 32 31 30 29 28 28 29 29 28 28 28 27 26 25 24 23 22 22 21 20 20 19 19 18 17 16 15 14 13 12 11 10 8 7 6 5 4 3 3 2 2 2 2 2 3 3 4 4 3 3 3 3 2 1 1 3 4 6 7 8 8 8 8 8 8 9 8 8 8 8
37 39 38 39 39 39 38 37 37 36 35 34 34 34 33 33 33 32 31 30 30 31 31 31 30 29 28 26 25 24 24 23 22 21 21 21 21 20 19 18 17 16 15 14 13 12 10 9 8 7 6 6 5 5 4 3 3 3 3 3 4 4 4 4 4 3 3 2 2 0 1 3 6 8 9 9 9 9 9 9 9 9 9 9 9
35 34 35 39 41 41 40 39 38 37 37 36 35 35 35 34 35 34 34 33 33 33 33 32 31 29 28 27 26 25 25 24 24 23 23 23 23 22 21 20 18 17 15 14 13 11 10 9 9 9 8 8 7 6 5 5 4 4 4 4 4 4 4 4 4 4 3 3 2 1 1 3 5 7 9 9 9 9 10 9 9 9 9 10 10
29 31 36 40 41 42 42 41 40 39 39 38 37 36 36 36 37 36 36 36 35 35 34 33 32 31 29 28 27 27 26 26 25 25 25 25 24 23 22 20 19 17 15 14 13 12 11 10 10 10 9 9 8 7 6 5 5 4 4 4 4 4 4 4 3 3 3 3 2 2 1 2 4 7 9 10 9 10 10 10 10 9 10 10 9
32 35 38 38 40 42 43 43 42 42 41 39 38 37 38 39 38 38 38 38 38 37 36 35 33 32 31 30 29 29 28 28 27 27 27 26 25 24 22 20 19 17 16 15 14 13 13 12 11 11 10 9 8 8 7 6 5 4 4 4 3 3 3 3 2 2 2 2 2 2 2 2 4 7 9 10 10 10 10 9 9 9 9 9 9
33 38 37 37 40 42 43 44 44 44 43 41 40 39 39 40 39 39 40 40 39 39 38 36 35 34 33 32 30 30 29 29 29 29 28 27 26 24 22 21 20 19 18 17 16 15 14 13 12 12 11 10 9 8 7 7 6 5 4 4 3 3 2 2 2 2 2 2 2 2 2 2 5 7 8 9 10 10 10 10 9 8 8 8 9
36 40 38 38 41 40 42 45 46 45 44 43 42 41 41 41 41 41 41 41 41 40 39 37 37 35 34 33 32 31 31 30 30 30 29 28 27 25 23 22 21 20 20 18 17 16 15 14 13 12 12 11 10 9 8 8 7 6 5 4 3 3 2 2 2 2 2 2 1 1 2 3 5 7 8 8 10 11 11 11 10 9 8 8 8
41 40 38 41 41 39 42 45 47 46 45 45 44 44 44 44 44 44 44 43 43 41 40 39 38 37 36 35 34 33 32 31 31 31 30 29 27 25 24 23 22 22 21 19 18 17 16 15 14 14 13 12 11 10 9 9 8 7 6 5 4 3 2 1 1 2 2 1 1 1 2 3 5 7 8 8 10 12 13 12 12 11 9 8 8
41 38 41 43 40 41 43 44 46 47 46 47 47 46 46 46 46 46 46 45 44 43 42 41 40 39 37 36 35 34 33 33 32 32 31 30 28 26 25 25 24 23 22 21 19 18 17 16 15 14 13 13 12 11 10 9 8 7 6 5 4 3 2 1 1 2 1 1 2 3 3 4 6 7 9 10 11 12 12 13 13 12 12 10 10
40 41 44 41 40 43 43 43 45 46 47 49 49 49 48 48 47 47 47 46 46 45 44 43 42 40 39 37 37 36 35 34 34 33 32 31 30 28 27 26 26 25 23 22 21 20 19 17 17 16 15 14 13 12 11 9 8 7 6 5 4 3 2 2 2 2 2 2 3 4 5 6 7 8 10 11 12 11 11 12 13 13 13 13 11
41 43 40 37 41 43 43 43 44 46 48 50 51 50 50 49 49 49 48 47 47 47 46 45 44 42 40 39 38 37 37 36 35 35 34 32 31 30 29 28 27 26 25 24 23 22 21 20 19 18 16 15 14 13 12 11 9 7 6 5 4 3 2 2 2 2 3 3 4 5 6 7 8 9 9 10 11 10 11 11 12 13 13 13 13
39 36 36 38 42 41 42 43 44 46 49 50 50 50 51 50 50 50 49 49 49 49 48 47 45 43 42 41 39 39 39 38 37 36 35 33 32 31 31 30 29 28 27 26 25 24 23 22 20 19 18 16 15 14 13 12 10 8 6 5 4 3 2 2 2 3 4 5 6 7 8 8 9 9 9 9 9 9 10 10 11 11 11 11 11
34 33 37 39 40 40 41 43 44 47 48 49 51 52 52 51 51 50 50 50 50 50 50 49 47 45 44 42 41 41 40 40 38 37 36 35 34 33 33 32 31 30 28 27 27 25 24 23 21 20 19 18 17 16 14 12 11 8 7 5 4 3 2 3 4 5 5 6 7 8 9 9 9 8 8 8 7 7 7 8 8 7 8 8 7
34 35 37 37 37 39 40 42 43 46 48 50 51 51 50 49 50 50 50 51 51 51 51 50 49 47 46 44 43 42 42 41 39 39 38 37 36 35 34 34 33 32 31 29 28 27 25 24 23 21 21 20 19 17 15 13 11 9 7 6 4 3 4 5 6 7 7 8 9 9 9 9 8 7 7 7 6 6 5 5 5 5 5 5 4
34 35 36 36 37 38 39 42 43 46 48 49 49 49 48 48 48 48 48 49 50 51 51 51 50 49 48 46 45 44 43 42 41 40 39 38 37 36 35 35 34 33 32 31 30 28 27 25 24 23 22 21 21 19 17 14 12 10 8 6 5 5 5 7 9 9 9 9 9 9 9 9 8 7 7 6 6 5 5 5 5 4 5 4 3
33 33 35 37 38 39 40 42 43 44 45 46 47 46 45 44 44 45 46 47 49 50 50 50 50 50 49 48 46 45 44 44 43 42 40 39 38 37 37 36 36 35 34 32 31 29 28 27 26 25 23 21 21 20 18 15 12 10 8 6 6 6 7 9 11 12 11 10 9 9 9 9 8 8 7 6 6 5 5 4 4 5 5 5 4
30 31 33 35 37 38 39 40 41 41 42 42 42 42 41 40 41 41 42 44 46 47 47 49 50 51 50 49 48 47 46 46 45 43 42 40 39 39 39 38 38 37 35 34 33 32 30 29 28 27 25 22 20 19 18 15 12 10 9 8 7 8 9 10 12 12 12 10 9 9 9 9 9 8 7 6 5 5 4 4 5 5 5 5 5
28 29 31 33 35 36 36 38 39 40 39 38 38 38 38 38 38 39 41 44 45 45 47 48 50 51 51 50 49 48 48 47 46 45 44 43 42 41 40 40 39 38 37 37 36 35 33 32 30 29 27 23 21 19 17 16 15 11 10 10 10 10 10 11 12 12 12 11 11 11 10 10 9 8 6 5 4 4 4 4 5 6 5 5 5
25 27 29 31 34 35 36 37 38 38 38 39 40 40 41 40 40 43 46 45 44 44 46 48 50 51 51 51 51 50 49 49 48 47 46 45 44 42 41 41 41 40 40 39 37 36 35 33 32 29 27 25 24 21 19 18 16 12 10 10 11 12 12 12 13 13 13 12 12 11 11 10 9 7 5 3 3 4 4 4 5 5 4 4 5
23 25 28 31 32 33 35 36 36 37 40 41 41 42 44 44 43 45 45 42 43 45 47 49 50 50 50 51 51 51 50 50 50 49 48 47 45 44 43 43 42 42 40 39 38 37 36 35 33 30 27 25 24 23 23 19 13 12 11 9 7 9 11 12 13 13 12 11 11 10 10 11 9 7 4 2 2 3 4 4 4 4 4 5 5
23 24 26 28 29 32 34 34 35 37 39 41 42 43 43 42 41 40 39 38 39 43 45 45 46 47 47 48 49 50 51 51 51 50 49 48 47 46 45 44 44 43 42 41 40 39 38 37 35 32 28 25 22 23 26 21 14 14 12 6 2 4 5 7 10 11 10 9 9 9 10 11 9 6 4 3 2 3 3 3 3 4 4 5 6
22 23 24 26 28 30 33 34 35 37 38 40 42 41 39 38 37 35 34 34 35 37 38 39 42 44 44 46 48 49 50 50 50 49 49 48 47 47 46 45 45 45 45 44 43 42 41 39 37 34 31 28 23 24 27 24 18 16 9 2 1 2 2 6 10 10 10 10 9 8 9 10 8 5 3 1 2 1 2 3 3 4 5 6 7
20 22 23 24 26 28 31 33 34 35 36 38 39 37 34 33 32 28 26 29 29 29 34 38 39 40 43 46 47 48 49 49 49 49 49 49 48 48 47 46 46 46 45 45 45 44 42 40 39 37 35 32 27 25 27 26 23 19 11 4 2 1 1 4 7 7 11 13 13 12 10 10 9 6 3 2 1 1 3 4 4 5 6 7 8
19 20 20 21 23 25 27 29 32 33 34 35 36 36 35 34 33 30 28 29 28 31 39 42 39 41 44 45 46 47 48 48 48 49 49 49 48 48 47 46 46 46 46 45 44 44 43 42 41 40 37 33 29 26 27 27 25 23 18 11 6 4 4 6 4 2 6 12 14 14 13 12 11 8 4 3 3 3 3 4 6 6 7 7 7
19 19 18 18 19 21 24 26 29 32 33 34 35 36 36 35 36 35 33 32 33 36 39 38 38 42 43 43 46 47 48 48 48 48 48 48 48 47 46 46 45 45 45 45 45 44 44 43 41 41 38 34 31 28 29 28 25 23 21 17 12 8 9 9 5 2 3 6 12 16 15 14 13 10 6 4 4 4 4 6 6 7 9 7 7
17 16 15 14 15 17 20 22 25 28 30 31 34 36 37 37 37 36 34 35 35 32 31 31 33 37 39 41 43 45 46 47 47 48 48 48 47 47 46 46 45 45 45 46 46 45 43 42 42 41 39 37 33 30 30 30 27 24 21 18 13 12 13 12 10 7 3 1 6 11 14 15 15 12 8 6 6 5 6 7 8 10 10 8 7
18 17 14 12 11 12 15 18 21 24 26 28 31 35 37 36 37 36 34 34 33 28 25 27 30 32 35 38 39 41 44 45 47 47 48 47 47 46 46 46 46 45 45 45 45 44 44 44 43 43 41 40 37 32 29 31 31 27 24 20 15 12 12 11 11 9 5 2 3 3 7 10 12 13 11 8 6 6 7 8 10 11 9 8 7
21 20 17 14 11 10 11 14 17 21 23 26 29 32 35 35 35 36 35 32 29 26 24 25 28 30 33 35 36 39 42 44 46 46 47 47 47 46 46 46 46 45 45 45 45 45 45 45 44 44 42 41 39 35 31 31 31 30 27 25 21 16 11 7 10 11 6 2 2 2 6 9 7 9 12 11 7 6 8 10 11 11 10 9 7
27 24 20 17 14 10 9 11 13 17 20 23 26 30 32 33 33 33 34 32 28 27 26 26 28 30 32 34 35 37 39 42 45 45 46 47 47 47 47 46 46 46 46 46 46 47 47 46 44 43 43 42 41 38 34 31 31 30 28 27 26 22 17 13 16 18 12 5 3 1 6 11 8 7 10 11 8 6 8 13 13 11 11 9 7
Wind_Direction
187 182 182 177 180 181 182 184 182 181 180 181 180 180 178 180 179 175 172 167 164 164 161 157 153 151 150 147 149 149 147 145 142 137 131 127 123 120 120 117 112 107 105 104 104 104 104 104 100 102 103 101 99 95 92 91 88 86 86 80 74 71 68 70 76 80 83 87 90 95 94 88 83 79 79 82 84 78 73 69 67 69 68 64 63
182 179 180 177 180 181 182 185 185 183 182 183 181 184 182 185 184 180 178 176 174 171 168 162 156 154 154 151 150 147 147 148 146 144 139 134 132 130 128 127 122 114 113 111 109 114 116 113 109 111 113 108 105 105 106 102 92 85 83 79 75 70 67 66 69 78 83 84 83 89 93 90 86 83 81 83 86 82 76 70 66 67 66 67 69
176 177 179 178 181 181 182 185 186 185 186 186 184 186 187 190 187 184 183 182 179 175 174 165 158 157 156 153 151 149 149 153 150 147 145 141 146 146 142 141 130 120 120 119 119 124 125 130 132 127 122 117 112 110 111 104 96 90 84 79 77 71 67 64 62 68 77 82 78 82 93 92 87 88 86 85 87 83 77 69 64 64 62 62 67
177 177 178 179 182 181 182 185 186 187 188 188 188 189 191 195 191 188 189 188 181 178 176 167 163 159 158 156 154 154 155 154 148 144 141 137 141 149 151 145 134 128 124 124 126 123 121 132 146 146 142 126 120 115 108 85 72 77 78 74 70 63 58 58 57 57 62 74 79 82 91 89 82 88 95 91 89 83 76 69 64 63 60 57 58
179 177 178 180 183 183 182 185 187 189 190 190 191 192 194 198 196 192 192 191 184 180 177 170 167 162 161 160 158 155 155 152 147 144 140 136 133 137 148 140 132 133 129 124 125 127 127 140 154 152 181 163 125 107 20 359 7 4 11 19 23 26 26 30 35 42 47 55 68 81 92 91 78 79 94 100 93 83 73 65 61 61 58 53 51
180 178 178 180 183 182 182 185 186 187 190 192 192 196 196 198 198 195 194 191 183 180 177 172 169 167 166 165 162 154 153 150 146 146 145 146 136 133 141 132 124 128 129 125 124 147 167 164 166 151 181 225 251 311 318 319 318 316 316 317 322 328 332 340 346 358 14 35 50 76 93 102 86 75 85 103 96 81 70 64 56 54 54 47 46
181 179 178 181 183 180 181 184 186 186 188 190 191 195 196 198 198 195 192 189 185 181 178 175 172 171 170 168 163 156 155 150 147 146 148 156 146 142 144 136 133 134 134 137 129 155 187 185 185 174 193 238 281 299 300 297 296 294 292 296 300 302 305 307 307 312 318 333 8 66 96 117 107 82 78 91 94 84 77 72 54 45 50 47 44
181 180 180 183 183 180 180 181 184 184 185 189 191 193 193 195 196 193 190 188 187 182 181 180 175 171 170 169 168 164 160 155 158 158 157 166 155 150 156 153 153 152 147 165 155 145 192 208 209 204 219 249 276 282 282 284 286 286 286 288 291 292 294 293 292 289 286 288 285 157 135 130 130 105 81 66 72 86 86 81 59 38 40 46 44
181 181 182 184 183 180 179 180 182 182 185 187 188 191 191 192 191 189 188 188 188 186 184 182 177 172 169 172 176 172 168 166 173 178 178 179 170 160 164 168 170 171 165 171 160 157 216 228 225 229 242 258 270 273 275 277 280 283 288 292 292 292 291 287 284 279 273 267 251 211 173 134 129 120 82 49 47 71 72 75 67 49 37 34 39
182 183 183 184 183 181 180 180 182 184 185 186 187 187 188 190 188 185 186 188 188 188 184 183 180 177 174 178 192 189 185 189 191 199 201 193 187 174 171 177 176 173 167 167 173 208 238 239 237 243 252 259 263 265 269 272 278 284 291 296 298 298 296 292 282 270 258 241 223 194 168 141 127 105 75 55 55 48 62 72 68 66 54 41 38
182 184 184 184 184 182 182 180 182 185 184 189 190 186 184 187 188 183 184 186 187 188 185 185 186 187 187 189 203 205 202 208 209 208 200 187 179 175 176 177 172 170 176 190 210 228 235 231 233 239 245 249 251 254 260 267 277 287 296 302 310 315 315 314 287 238 212 199 188 171 154 146 130 99 77 71 71 69 86 80 75 80 83 75 61
184 185 185 185 185 185 184 183 183 184 184 188 191 189 187 188 191 189 187 190 192 194 193 193 195 200 204 206 210 209 210 212 207 199 188 178 174 176 176 181 190 198 206 213 218 218 214 214 214 218 227 230 234 243 253 266 279 298 327 345 359 7 18 31 63 124 151 158 160 152 146 145 126 101 83 72 69 72 83 80 89 96 92 98 83
185 187 187 188 188 188 188 189 190 188 188 188 191 192 192 193 198 199 197 200 201 200 200 201 204 210 212 211 212 210 209 204 198 191 184 179 176 176 179 195 208 211 214 214 212 205 197 194 195 203 208 207 209 211 201 129 78 68 63 59 54 52 51 54 67 97 127 140 146 142 144 139 116 105 90 75 73 78 90 87 98 126 100 105 88
188 189 189 191 191 193 194 197 199 196 194 192 194 196 198 198 200 203 204 205 206 202 202 205 208 212 211 208 208 207 202 196 192 188 186 186 186 188 196 206 210 210 211 207 202 196 192 188 187 187 183 173 156 135 113 95 83 72 66 62 56 55 54 57 67 86 117 133 142 140 143 132 104 99 93 83 77 82 108 102 102 172 169 135 87
192 192 192 194 196 198 200 203 204 202 200 198 197 198 202 202 202 204 204 205 204 203 205 207 208 209 207 204 204 203 197 192 190 189 194 200 202 203 204 206 205 206 205 197 192 192 188 182 176 169 155 140 125 109 92 75 66 60 55 53 49 48 47 51 63 83 115 132 144 142 145 133 98 80 86 86 76 82 124 117 97 151 207 216 292
197 196 196 198 200 202 204 206 207 207 206 203 200 199 203 203 204 204 203 204 203 205 206 205 206 203 201 198 198 198 194 191 189 192 203 208 205 204 202 200 199 198 197 193 190 188 182 173 166 156 140 122 104 80 63 51 43 40 37 39 37 37 39 41 51 70 109 135 149 150 150 138 102 72 76 81 73 91 165 157 92 83 225 248 269
199 200 200 201 203 205 207 208 210 211 209 207 204 200 202 204 204 204 201 202 202 203 202 199 200 198 196 196 195 196 193 190 193 200 206 205 201 199 195 192 192 190 189 188 186 182 174 166 158 150 139 122 104 81 59 42 30 24 21 20 20 20 24 30 39 54 92 141 158 161 155 141 113 78 71 75 67 239 237 245 265 309 298 287 282
201 203 204 205 205 207 209 211 212 212 211 209 206 201 202 205 205 204 200 201 203 202 199 196 197 195 195 196 195 195 193 194 201 206 203 198 194 192 189 185 183 181 181 181 179 174 167 160 155 149 143 133 119 104 81 58 35 21 14 8 7 5 8 15 22 43 80 139 164 169 159 143 121 84 70 70 66 272 271 271 272 287 300 309 306
203 205 207 209 209 210 211 212 213 212 211 209 207 203 203 205 205 204 200 201 203 201 199 197 197 196 196 197 198 197 196 199 202 201 197 193 189 185 182 178 176 176 178 177 173 167 162 160 156 152 146 140 132 122 106 87 58 30 16 4 359 355 356 358 5 26 65 124 156 167 162 150 123 80 68 67 62 266 284 291 290 290 299 309 310
207 208 209 211 211 212 213 213 214 212 211 209 209 206 205 205 205 205 201 201 202 201 200 200 199 198 199 200 201 201 200 201 199 196 193 192 189 182 177 175 178 180 180 176 170 167 164 162 158 154 148 142 134 126 111 89 59 26 6 356 349 343 343 338 348 359 17 113 145 153 153 152 123 72 60 54 21 281 286 293 302 305 306 308 310
209 211 211 212 212 213 214 214 214 212 211 209 209 209 206 204 205 205 202 202 202 201 202 201 201 201 202 203 204 204 203 201 198 196 194 194 191 183 179 180 185 186 183 178 173 171 168 166 163 158 154 150 142 129 75 17 355 351 344 338 335 328 325 327 327 327 329 10 145 139 140 141 112 68 57 48 40 29 7 333 330 344 339 332 332
211 213 213 213 213 214 215 215 214 213 211 209 209 209 207 204 204 205 204 204 203 203 204 204 204 204 205 206 207 208 206 204 201 200 198 195 190 186 184 185 190 190 186 183 178 176 174 172 171 170 171 174 185 199 238 287 307 314 316 317 317 314 314 316 313 313 315 309 209 138 134 129 100 66 58 52 50 57 57 59 60 58 51 44 39
214 214 215 214 214 215 215 216 215 213 212 210 210 210 208 206 205 206 206 205 205 206 206 206 207 207 208 210 211 211 209 208 206 204 201 196 191 189 186 186 192 192 188 185 181 181 181 180 180 181 185 185 195 201 212 229 255 276 288 292 293 296 296 296 296 302 303 309 315 140 131 127 101 68 60 59 59 63 65 67 70 69 66 61 56
218 217 216 215 214 215 216 216 216 214 213 213 212 211 211 209 207 206 207 206 207 208 209 209 210 211 212 214 214 213 211 210 208 205 201 196 192 190 189 190 193 193 192 189 187 188 187 186 185 186 189 188 192 192 193 204 216 233 249 262 270 273 275 277 281 284 289 296 304 251 128 127 109 77 64 65 66 68 70 69 70 71 71 67 62
222 220 219 218 217 216 216 216 216 215 215 215 214 213 212 211 209 207 208 208 209 210 211 212 213 214 215 216 215 214 212 210 208 205 201 198 195 194 194 195 196 197 197 196 195 193 190 190 190 189 188 187 187 185 186 191 199 211 226 239 248 254 260 265 270 273 278 280 285 271 182 135 122 91 72 69 70 72 73 71 72 73 73 70 66
225 224 224 223 220 218 217 216 217 216 217 217 216 215 213 212 211 209 209 209 210 211 213 214 215 216 216 217 215 213 211 210 208 205 202 201 200 199 200 200 200 200 199 198 198 195 194 194 192 190 187 185 182 181 183 186 193 202 212 222 230 240 249 257 265 271 277 276 277 263 223 162 138 109 83 74 72 74 74 73 73 73 73 72 68
227 230 229 226 223 220 218 217 218 218 217 217 217 217 216 215 214 212 212 211 212 213 214 216 216 217 217 217 216 213 211 209 208 205 204 203 203 203 202 202 201 201 199 198 200 198 197 194 191 189 185 182 180 179 181 184 187 191 199 206 217 228 239 254 271 278 288 285 279 263 224 182 150 123 94 80 77 76 76 76 74 73 72 71 71
231 233 230 228 227 223 220 219 219 219 217 217 217 218 218 218 216 215 215 214 214 215 216 217 217 218 218 218 217 215 212 210 208 206 206 205 205 205 204 203 201 201 200 199 201 201 198 194 191 188 184 182 181 180 179 180 181 180 186 193 203 217 234 255 282 292 301 299 285 264 222 183 158 138 111 91 84 79 78 79 76 75 74 72 74
234 235 232 230 230 226 222 221 220 219 218 217 217 218 219 218 217 216 216 216 216 217 217 218 218 218 218 218 217 216 214 212 210 208 208 208 207 206 205 205 203 201 201 200 200 203 199 194 191 187 185 183 182 181 178 176 176 174 180 189 199 213 234 262 289 297 300 296 281 253 217 178 162 152 133 111 91 81 79 81 79 77 77 77 78
237 236 233 233 231 227 225 224 222 220 219 218 218 219 219 218 217 217 217 217 218 218 218 219 219 218 218 218 217 217 216 214 213 211 210 210 208 207 206 205 204 203 203 201 199 201 201 195 191 188 186 184 182 179 177 175 172 173 177 187 199 209 234 266 291 299 295 279 244 210 193 172 165 159 147 127 102 89 85 82 81 80 79 81 82
237 234 234 234 230 228 229 226 223 221 219 219 220 220 219 219 218 218 218 218 218 218 219 219 219 219 218 218 217 217 217 217 216 214 213 212 210 208 208 206 206 204 202 202 199 199 201 197 192 190 188 185 182 178 176 175 173 175 179 189 203 216 239 269 289 292 279 243 200 182 174 166 159 156 145 128 111 102 97 88 83 81 78 80 82
235 235 235 232 229 230 229 227 224 221 220 220 221 220 221 220 219 219 219 219 218 218 218 219 219 219 219 218 218 217 216 217 217 217 215 214 212 210 209 208 208 205 203 202 200 198 198 197 193 191 189 185 183 178 175 177 178 179 183 196 211 227 250 269 279 267 244 211 183 175 171 168 160 156 148 134 123 117 115 102 90 83 79 80 82
237 238 235 230 231 231 228 227 225 222 221 222 222 221 221 221 220 220 220 219 218 219 218 219 219 219 219 218 218 218 217 217 217 217 217 215 214 212 211 210 208 206 204 202 201 200 197 195 193 190 189 185 184 181 177 178 183 186 190 203 215 230 251 255 250 234 214 195 180 175 171 168 162 157 155 149 140 132 129 119 105 96 91 88 83
240 237 233 234 234 230 227 226 224 224 223 223 221 220 221 221 220 220 219 219 219 219 219 219 219 219 219 218 218 218 218 218 217 217 216 215 214 213 212 211 208 206 205 204 203 200 196 195 194 191 189 186 186 184 181 182 185 188 192 204 216 224 236 228 216 205 191 180 173 173 170 166 161 155 153 152 150 142 136 133 125 117 114 107 93
241 236 237 239 235 230 227 226 224 224 223 222 221 220 221 220 220 219 219 220 219 219 219 219 219 219 219 218 218 218 218 218 217 217 215 215 214 213 212 211 208 206 205 205 203 200 197 196 196 193 189 187 188 184 183 187 187 187 193 201 212 216 206 189 183 178 174 168 166 169 167 162 158 152 148 147 147 145 142 142 142 138 136 134 122
243 240 241 239 235 232 229 227 225 224 223 222 222 220 220 219 219 219 219 220 219 220 220 219 219 219 219 218 217 217 218 218 217 217 216 215 214 213 213 210 208 206 205 205 203 201 198 197 198 197 193 189 188 185 184 188 186 184 189 194 197 196 179 165 168 166 157 154 155 160 161 159 157 153 149 145 141 139 141 146 153 159 159 157 158
249 244 242 238 235 233 230 228 227 226 225 223 221 220 218 218 219 219 219 219 219 220 220 219 219 219 219 218 217 217 217 218 218 217 217 216 214 214 213 210 208 207 206 204 203 201 199 198 198 198 197 194 190 186 183 184 184 182 183 186 183 175 166 161 164 162 152 147 144 145 151 153 153 152 147 143 139 137 138 144 150 162 167 162 162
254 248 244 241 238 235 231 230 229 227 225 222 220 219 218 217 218 219 219 220 220 220 219 219 219 219 219 218 218 217 218 218 218 217 217 216 215 214 213 210 208 207 206 204 203 202 200 201 200 198 198 198 194 189 184 181 178 176 172 170 170 161 157 162 166 164 157 150 142 141 145 149 152 151 147 144 141 137 138 143 151 161 165 162 161
257 252 247 243 239 236 232 230 227 225 223 222 219 217 216 216 217 218 219 220 220 219 219 219 219 219 219 219 218 218 218 218 217 217 216 216 215 214 212 210 208 207 205 204 203 202 201 201 202 200 197 196 197 192 185 175 167 164 162 153 150 150 152 160 167 169 167 161 153 150 151 153 155 154 152 151 149 147 148 151 157 161 160 162 164
258 253 248 242 238 234 231 228 226 223 220 218 215 213 212 213 214 215 217 219 219 218 219 220 220 220 220 220 219 218 218 218 217 217 217 216 215 213 212 209 208 207 205 204 204 203 202 201 201 201 198 192 191 188 182 173 155 138 139 141 139 142 149 158 166 168 169 168 161 158 157 158 160 159 161 166 169 172 172 172 165 160 156 159 159
256 250 246 242 238 234 229 226 224 220 216 214 212 210 208 207 209 212 215 216 216 216 218 220 220 221 221 220 220 219 218 218 217 217 216 216 214 213 211 209 208 208 208 208 206 205 203 202 200 201 200 192 186 183 179 172 152 127 122 128 130 137 143 149 158 163 164 164 162 164 165 164 165 164 167 178 198 202 195 185 172 166 164 157 152
256 250 246 244 241 234 229 227 224 218 216 215 212 210 210 209 209 213 214 214 215 215 217 219 219 220 220 219 219 218 218 218 218 217 216 215 214 212 211 210 209 208 209 209 208 206 204 203 201 198 197 193 188 184 178 174 164 152 143 128 121 139 146 146 148 151 155 158 159 166 168 166 163 156 153 153 187 193 189 190 185 182 177 163 151
261 255 249 247 241 235 231 228 224 220 217 215 213 213 213 213 213 215 214 213 216 218 218 219 219 219 219 219 218 217 217 218 217 216 215 215 215 214 213 211 210 209 208 208 207 207 205 204 203 199 195 191 191 189 184 183 178 163 150 138 140 152 164 173 169 162 161 165 165 165 167 169 163 144 128 107 113 154 184 209 213 195 183 167 153
266 260 253 247 241 237 233 228 225 222 219 216 215 215 214 213 214 217 216 214 218 219 218 221 221 219 219 218 218 217 217 217 217 216 216 216 216 216 214 212 211 210 209 208 207 207 206 204 203 201 197 191 189 189 190 191 183 168 150 100 122 161 212 202 191 192 195 194 191 186 183 184 183 168 144 104 102 124 251 247 217 189 180 167 153
279 275 266 255 248 243 237 231 227 224 220 218 215 212 210 209 208 211 212 211 215 216 215 218 219 218 218 218 217 217 217 217 217 218 218 218 217 216 216 214 212 210 209 210 209 208 208 206 205 203 201 197 193 189 193 197 192 185 177 142 130 200 236 167 173 202 212 208 205 206 208 209 211 208 211 255 234 294 299 245 206 187 180 169 154
304 299 289 273 259 251 243 235 229 225 222 218 214 210 208 205 201 199 198 199 204 209 212 215 214 215 217 217 217 217 217 218 218 219 218 218 217 216 215 214 212 211 210 211 211 210 209 209 208 206 204 203 199 192 194 198 197 198 198 196 201 203 162 148 148 186 207 211 212 213 219 222 226 227 231 260 239 250 265 212 200 195 181 174 162
324 315 305 293 273 258 249 240 233 228 224 218 214 209 206 204 203 202 202 202 206 213 216 216 216 216 216 216 217 218 218 218 218 218 218 217 217 216 216 215 215 213 212 211 212 213 212 211 210 209 207 206 203 198 197 197 197 203 209 211 214 203 173 165 171 163 168 209 215 216 224 230 235 237 241 256 241 231 216 195 196 192 181 179 172
337 328 318 308 289 270 256 247 240 233 227 221 214 209 207 205 206 207 210 212 214 219 221 218 219 218 215 216 217 216 217 217 217 218 218 218 217 217 216 216 216 215 214 213 214 215 214 213 212 211 209 207 206 206 204 200 197 201 205 206 209 201 186 181 187 185 156 159 206 217 228 232 237 238 239 248 238 215 198 190 188 185 183 187 182
353 347 339 327 306 283 264 252 244 237 230 224 217 213 211 208 208 209 213 218 220 223 224 221 220 218 215 215 216 215 215 215 216 217 217 217 217 217 216 216 216 216 215 215 216 216 216 215 214 212 210 210 209 210 211 209 206 204 201 198 194 186 184 188 190 184 175 174 178 205 217 220 235 236 230 234 231 205 192 188 182 182 186 191 192
9 0 354 347 331 305 275 256 246 240 233 227 222 218 215 212 212 212 214 219 220 222 225 222 219 218 216 215 215 216 215 214 214 216 216 216 216 216 217 217 218 218 218 217 217 217 218 218 217 216 214 213 212 212 215 217 215 211 208 202 191 179 175 180 188 184 174 176 183 193 196 194 207 221 219 221 219 203 191 183 177 182 191 195 202
18 13 6 358 347 331 298 270 252 241 235 229 225 222 219 217 218 218 218 219 218 217 219 219 217 215 214 215 216 217 217 216 215 215 215 215 215 216 217 218 219 219 220 219 219 219 219 219 219 218 216 216 215 214 216 219 218 215 212 210 205 201 199 200 202 196 186 174 174 184 200 199 199 202 208 209 208 211 194 182 179 184 193 199 208